Rbgn^[z[y[W
メイン
   新天体発見情報
     Comet C/2020 P3 (ATLAS)
投稿するにはまず登録を

スレッド表示 | 新しいものから 前のトピック | 次のトピック | 下へ
投稿者 スレッド
佐藤裕久
投稿日時: 2020-8-26 11:17
モデレータ
登録日: 2005-6-12
居住地: 日本
投稿: 2442
オンライン
Comet C/2020 P3 (ATLAS)

8月9.6日UT、ハワイ Mauna Loaにある小惑星地球衝突最終警報システム Asteroid Terrestrial-
impact Last Alert System (ATLAS)調査プログラムのコースに0.5-m f/2 Schmidt反射望遠鏡で
得たCCD画像から小惑星状天体が発見された。
小惑星センターのPCCP webpageに公表後、他のCCD位置観測者によって彗星活動が見つかった。
A. Fitzsimmons (クイーンズ大学, Belfast)によると、J. Robinsonによってこの発見画像が
"彗星らしい"として報告したが、8月10.6日UT、J. D. Armstrong, E. J. GuarinとJ. O. 
Teagardenが2.0-m "Faulkes Telescope North"で得たフォローアップ観測まで、情報が抑えら
れた発見報告であった。4枚の120秒VRフィルタ画像で、2.0"(FWHMが1".3のシーイングで)のコマ
とp.a. 230°に15"の尾が見えた。
佐藤英貴氏(東京都文京区, 8月10.4日UT,60秒露出24枚のスタック,  0.43-m f/6.8 アストロ
グラフ, Mayhill近郊, ニューメキシコ州, 遠隔操作:強く集光した8" のコマが見えたが尾はない。
5".7の円形範囲で測定した光度は18.8等であった)ら、他のCCD位置観測者によって彗星状と
観測された。

彗星機能の報告は次の通り:

OC   Date        Reporter           Coma    Tail    PA          Exposures
L01  2020-08-09  K. Korlevic         6"      11"    230
L07  2020-08-10  E. Guido            8"      10"    230          66x90s
H06  2020-08-10  H. Sato             8"                          24x60s
F65  2020-08-10  A. Fitzsimmons      4"      15"    230          4x120s
L07  2020-08-11  E. Guido            8"      10"    235          46x90s
L07  2020-08-12  E. Guido            8"      10"    230          66x90s
G40  2020-08-14  G. Gasparovic               15"    235          25x50s
A77  2020-08-14  F. Kugel                    10"    220          11x120s
204  2020-08-15  A. Aletti           7"      15"    235          45x60s

発見位置は次のとおり、

     2020 UT             R.A. (2000) Decl.       Mag.
     Aug.  9.56992    3 45 36.80   +70 55 54.8   19.0
           9.57361    3 45 37.10   +70 55 57.1   18.8
           9.58374    3 45 37.44   +70 56 04.1   18.9
           9.59020    3 45 37.91   +70 56 07.0   19.1

MPCの楕円軌道要素、位置推算表は次のとおり、

Orbital elements:
    C/2020 P3 (ATLAS)                                                           
T 2021 Apr. 10.90359 TT                                 Rudenko                 
q   6.7658678            (2000.0)            P               Q                  
z  +0.0196920      Peri.   81.36178     -0.00915932     -0.95882826             
                   Node    18.81302     +0.10584145     -0.28318580             
e   0.8667667      Incl.   61.66323     +0.99434083     +0.02131118             
From 82 observations 2020 Aug. 9-15.                                            
                                                                                
Ephemeris:
Date    TT    R. A. (2000) Decl.     Delta      r    Elong.  Phase   m1
2020 07 17    03 22 58.3 +67 12 43   7.3952  6.9630    61.2     7.4  18.8
...
2020 08 01    03 37 48.8 +69 33 24   7.2479  6.9419    68.6     7.8  18.7
...
2020 08 09    03 45 06.8 +70 50 23   7.1653  6.9311    72.7     8.0  18.7
...
2020 08 15    03 50 11.0 +71 48 49   7.1022  6.9233    75.8     8.2  18.7
2020 08 16    03 50 59.3 +71 58 36   7.0917  6.9220    76.3     8.2  18.7
2020 08 17    03 51 46.7 +72 08 24   7.0811  6.9207    76.8     8.2  18.7
...
2020 08 23    03 56 13.6 +73 07 24   7.0176  6.9131    79.9     8.3  18.6
...
2020 08 31    04 01 11.9 +74 26 19   6.9335  6.9032    84.1     8.4  18.6
...
2020 09 15    04 06 21.1 +76 53 12   6.7807  6.8855    91.8     8.4  18.5

(MPEC 2020-Q01、CBET 4830)

スレッド表示 | 新しいものから 前のトピック | 次のトピック | トップ

投稿するにはまず登録を
 
© 1999 Tsutomu Seki.